• In Belgium
  • List of Countries
  • For 7 days
  • Water Temperature
  • Satellite Maps
  • Weather Map
  • Weather Widgets
  • user-avatar
    Login

    Hourly Weather Kantharalak

    Today, 22 July, Sunday

    Time Temperature Precipitation Wind Pressure Humidity
    00:00 +27°C° 0.6 mm 3 mps 741 mmHg 91%
    01:00 +27°C° 0.6 mm 3 mps 741 mmHg 92%
    02:00 +27°C° 0.3 mm 3 mps 741 mmHg 92%
    03:00 +27°C° 0.3 mm 3 mps 741 mmHg 93%
    04:00 +27°C° 0.3 mm 3 mps 740 mmHg 94%
    05:00 +27°C° 0.2 mm 3 mps 740 mmHg 93%
    06:00 +27°C° 0.2 mm 4 mps 741 mmHg 93%
    07:00 +27°C° 0.2 mm 4 mps 741 mmHg 92%
    08:00 +28°C° 0 mm 4 mps 741 mmHg 88%
    09:00 +29°C° 0 mm 5 mps 741 mmHg 84%
    10:00 +30°C° 0 mm 6 mps 742 mmHg 79%
    11:00 +30°C° 0 mm 6 mps 741 mmHg 76%
    12:00 +32°C° 0 mm 6 mps 741 mmHg 73%
    13:00 +33°C° 0 mm 6 mps 741 mmHg 70%
    14:00 +32°C° 0.5 mm 6 mps 740 mmHg 72%
    15:00 +32°C° 0.5 mm 5 mps 740 mmHg 73%
    16:00 +32°C° 0.5 mm 4 mps 739 mmHg 75%
    17:00 +30°C° 0 mm 4 mps 740 mmHg 78%
    18:00 +29°C° 0 mm 4 mps 740 mmHg 80%
    19:00 +28°C° 0 mm 4 mps 740 mmHg 83%
    20:00 +28°C° 0 mm 4 mps 740 mmHg 84%
    21:00 +28°C° 0 mm 4 mps 741 mmHg 85%
    22:00 +27°C° 0 mm 4 mps 741 mmHg 87%
    23:00 +27°C° 0 mm 4 mps 741 mmHg 87%

    Tomorrow, 23 July, Monday

    Time Temperature Precipitation Wind Pressure Humidity
    00:00 +27°C° 0 mm 4 mps 741 mmHg 87%
    01:00 +27°C° 0 mm 4 mps 741 mmHg 87%
    02:00 +27°C° 0.1 mm 4 mps 741 mmHg 87%
    03:00 +27°C° 0.1 mm 4 mps 740 mmHg 88%
    04:00 +27°C° 0.1 mm 3 mps 740 mmHg 88%
    05:00 +27°C° 0 mm 4 mps 740 mmHg 88%
    06:00 +27°C° 0 mm 4 mps 741 mmHg 88%
    07:00 +27°C° 0 mm 4 mps 741 mmHg 87%
    08:00 +28°C° 0 mm 4 mps 741 mmHg 83%
    09:00 +29°C° 0 mm 5 mps 741 mmHg 78%
    10:00 +30°C° 0 mm 6 mps 742 mmHg 74%
    11:00 +32°C° 0 mm 6 mps 741 mmHg 71%
    12:00 +33°C° 0 mm 6 mps 741 mmHg 69%
    13:00 +34°C° 0 mm 6 mps 740 mmHg 66%
    14:00 +34°C° 0.1 mm 6 mps 740 mmHg 67%
    15:00 +33°C° 0.1 mm 6 mps 739 mmHg 67%
    16:00 +33°C° 0.1 mm 5 mps 739 mmHg 68%
    17:00 +32°C° 0 mm 5 mps 739 mmHg 72%
    18:00 +30°C° 0 mm 5 mps 739 mmHg 76%
    19:00 +29°C° 0 mm 4 mps 739 mmHg 80%
    20:00 +29°C° 0 mm 4 mps 740 mmHg 80%
    21:00 +28°C° 0 mm 4 mps 741 mmHg 81%
    22:00 +28°C° 0 mm 4 mps 741 mmHg 81%
    23:00 +28°C° 0 mm 4 mps 741 mmHg 82%

    Day after tomorrow, 24 July, Tuesday

    Time Temperature Precipitation Wind Pressure Humidity
    00:00 +28°C° 0 mm 4 mps 741 mmHg 83%
    01:00 +27°C° 0 mm 3 mps 741 mmHg 85%
    02:00 +27°C° 0 mm 3 mps 740 mmHg 85%
    03:00 +27°C° 0 mm 3 mps 740 mmHg 85%
    04:00 +27°C° 0 mm 3 mps 740 mmHg 85%
    05:00 +27°C° 0 mm 3 mps 740 mmHg 85%
    06:00 +27°C° 0 mm 3 mps 741 mmHg 85%
    07:00 +27°C° 0 mm 4 mps 741 mmHg 85%
    08:00 +28°C° 0 mm 4 mps 741 mmHg 83%
    09:00 +28°C° 0 mm 3 mps 742 mmHg 81%
    10:00 +29°C° 0 mm 3 mps 742 mmHg 79%
    11:00 +30°C° 0.1 mm 4 mps 742 mmHg 76%
    12:00 +30°C° 0.1 mm 4 mps 741 mmHg 74%
    13:00 +32°C° 0.1 mm 5 mps 741 mmHg 71%
    14:00 +32°C° 1.2 mm 5 mps 740 mmHg 73%
    15:00 +32°C° 1.2 mm 5 mps 739 mmHg 74%
    16:00 +32°C° 1.2 mm 5 mps 738 mmHg 76%
    17:00 +30°C° 1.2 mm 4 mps 739 mmHg 80%
    18:00 +29°C° 1.2 mm 4 mps 739 mmHg 83%
    19:00 +28°C° 1.2 mm 4 mps 740 mmHg 87%
    20:00 +28°C° 0.2 mm 4 mps 740 mmHg 88%
    21:00 +27°C° 0.2 mm 3 mps 741 mmHg 89%
    22:00 +27°C° 0.2 mm 3 mps 741 mmHg 90%
    23:00 +27°C° 0.1 mm 3 mps 741 mmHg 89%

    25 July, Wednesday

    Time Temperature Precipitation Wind Pressure Humidity
    00:00 +27°C° 0.1 mm 4 mps 741 mmHg 89%
    01:00 +26°C° 0.1 mm 4 mps 741 mmHg 89%
    02:00 +26°C° 0.3 mm 3 mps 740 mmHg 89%
    03:00 +26°C° 0.3 mm 3 mps 740 mmHg 89%
    04:00 +26°C° 0.3 mm 3 mps 740 mmHg 89%
    05:00 +26°C° 0.2 mm 3 mps 740 mmHg 89%
    06:00 +26°C° 0.2 mm 3 mps 741 mmHg 88%
    07:00 +26°C° 0.2 mm 3 mps 741 mmHg 88%
    08:00 +28°C° 0 mm 4 mps 741 mmHg 83%
    09:00 +29°C° 0 mm 5 mps 742 mmHg 77%
    10:00 +30°C° 0 mm 5 mps 742 mmHg 72%
    11:00 +32°C° 0.7 mm 5 mps 741 mmHg 72%
    12:00 +32°C° 0.7 mm 5 mps 741 mmHg 72%
    13:00 +32°C° 0.7 mm 5 mps 740 mmHg 72%
    14:00 +32°C° 1.3 mm 5 mps 740 mmHg 74%
    15:00 +30°C° 1.3 mm 5 mps 739 mmHg 76%
    16:00 +30°C° 1.3 mm 5 mps 739 mmHg 78%
    17:00 +29°C° 0.5 mm 5 mps 739 mmHg 81%
    18:00 +28°C° 0.5 mm 4 mps 740 mmHg 85%
    19:00 +27°C° 0.5 mm 3 mps 740 mmHg 88%
    20:00 +27°C° 0.1 mm 3 mps 741 mmHg 88%
    21:00 +27°C° 0.1 mm 3 mps 741 mmHg 89%
    22:00 +26°C° 0.1 mm 3 mps 742 mmHg 89%
    23:00 +26°C° 0 mm 3 mps 742 mmHg 89%

    26 July, Thursday

    Time Temperature Precipitation Wind Pressure Humidity
    00:00 +26°C° 0 mm 3 mps 741 mmHg 90%
    01:00 +26°C° 0 mm 3 mps 741 mmHg 90%
    02:00 +26°C° 0 mm 3 mps 741 mmHg 91%
    03:00 +26°C° 0 mm 3 mps 741 mmHg 91%
    04:00 +25°C° 0 mm 2 mps 740 mmHg 92%
    05:00 +26°C° 0.1 mm 2 mps 741 mmHg 92%
    06:00 +26°C° 0.1 mm 2 mps 741 mmHg 93%
    07:00 +26°C° 0.1 mm 2 mps 742 mmHg 93%
    08:00 +26°C° 0.1 mm 3 mps 742 mmHg 91%
    09:00 +27°C° 0.1 mm 3 mps 742 mmHg 90%
    10:00 +27°C° 0.1 mm 3 mps 743 mmHg 88%
    11:00 +27°C° 0.2 mm 3 mps 742 mmHg 87%
    12:00 +28°C° 0.2 mm 3 mps 742 mmHg 86%
    13:00 +28°C° 0.2 mm 3 mps 741 mmHg 85%
    14:00 +29°C° 0.3 mm 3 mps 741 mmHg 84%
    15:00 +29°C° 0.3 mm 3 mps 740 mmHg 83%
    16:00 +29°C° 0.3 mm 4 mps 740 mmHg 82%
    17:00 +29°C° 0.3 mm 3 mps 740 mmHg 85%
    18:00 +28°C° 0.3 mm 2 mps 741 mmHg 88%
    19:00 +27°C° 0.3 mm 2 mps 741 mmHg 91%
    20:00 +27°C° 0.8 mm 2 mps 741 mmHg 92%
    21:00 +27°C° 0.8 mm 2 mps 742 mmHg 93%
    22:00 +26°C° 0.8 mm 2 mps 742 mmHg 94%
    23:00 +26°C° 0.6 mm 2 mps 742 mmHg 94%

    27 July, Friday

    Time Temperature Precipitation Wind Pressure Humidity
    00:00 +26°C° 0.6 mm 2 mps 742 mmHg 94%
    01:00 +26°C° 0.6 mm 2 mps 741 mmHg 94%
    02:00 +26°C° 0.6 mm 2 mps 741 mmHg 95%
    03:00 +26°C° 0.6 mm 2 mps 741 mmHg 95%
    04:00 +26°C° 0.6 mm 2 mps 741 mmHg 95%
    05:00 +26°C° 0.3 mm 2 mps 741 mmHg 95%
    06:00 +26°C° 0.3 mm 2 mps 742 mmHg 94%
    07:00 +26°C° 0.3 mm 2 mps 742 mmHg 94%
    08:00 +27°C° 0.6 mm 2 mps 742 mmHg 91%
    09:00 +28°C° 0.6 mm 3 mps 742 mmHg 88%
    10:00 +28°C° 0.6 mm 3 mps 743 mmHg 85%
    11:00 +29°C° 1.3 mm 3 mps 742 mmHg 85%
    12:00 +29°C° 1.3 mm 3 mps 742 mmHg 85%
    13:00 +29°C° 1.3 mm 2 mps 741 mmHg 85%
    14:00 +29°C° 0.5 mm 3 mps 741 mmHg 83%
    15:00 +30°C° 0.5 mm 3 mps 740 mmHg 82%
    16:00 +30°C° 0.5 mm 3 mps 740 mmHg 80%
    17:00 +29°C° 0.2 mm 3 mps 740 mmHg 83%
    18:00 +28°C° 0.2 mm 3 mps 740 mmHg 87%
    19:00 +28°C° 0.2 mm 2 mps 741 mmHg 91%
    20:00 +27°C° 1 mm 3 mps 741 mmHg 92%
    21:00 +27°C° 1 mm 3 mps 742 mmHg 92%
    22:00 +27°C° 1 mm 3 mps 742 mmHg 93%
    23:00 +27°C° 0.8 mm 3 mps 742 mmHg 93%
    Show more